Location: Austin, TX
(30.3000°N, 97.7500°W)
Time: 13:40:46
(UTC-05:00)

Cosmos 1666 - Visible Passes

Search period start: 21 May 2018 00:00
Search period end: 31 May 2018 00:00
Orbit: 500 x 523 km, 82.5° (Epoch: 20 May)

Date Brightness Start Highest point End Pass type
(mag) Time Alt. Az. Time Alt. Az. Time Alt. Az.
21 May 4.4 21:39:53 10° NNE 21:42:31 19° ENE 21:42:31 19° ENE visible
21 May 5.2 23:15:19 10° NW 23:17:28 18° WNW 23:17:28 18° WNW visible
22 May 4.6 21:24:05 10° NE 21:26:17 14° ENE 21:26:43 14° E visible
22 May 4.7 22:58:40 10° NW 23:01:40 24° W 23:01:40 24° W visible
23 May 4.8 21:08:42 10° ENE 21:09:53 11° ENE 21:10:56 10° E visible
23 May 4.2 22:42:06 10° NNW 22:45:34 32° W 22:45:53 31° WSW visible
24 May 3.7 22:25:38 10° NNW 22:29:17 42° W 22:30:08 36° SW visible
25 May 3.2 22:09:12 10° NNW 22:13:00 56° W 22:14:24 34° SSW visible
26 May 2.8 21:52:50 10° N 21:56:42 76° W 21:58:43 27° S visible
27 May 2.6 21:36:31 10° N 21:40:24 80° E 21:43:04 19° S visible
28 May 2.8 21:20:15 10° N 21:24:05 59° E 21:27:27 13° SSE visible
29 May 3.1 21:04:02 10° N 21:07:45 44° E 21:11:25 10° SSE visible
30 May 3.5 20:47:53 10° NNE 20:51:24 33° E 20:54:54 10° SSE visible
30 May 5.9 22:26:04 10° W 22:26:36 10° W 22:27:08 10° W visible
